AirNav   ProFlight Series 2 Aviation Headset
 
 278 users online  

24PN A H Butz Downtown Allentown Heliport
Allentown, Pennsylvania, USA

GOING TO ALLENTOWN?


FAA INFORMATION EFFECTIVE 18 JUNE 2020

Location

FAA Identifier: 24PN
Lat/Long: 40-36-03.8000N 075-28-30.3000W
40-36.063333N 075-28.505000W
40.6010556,-75.4750833
(estimated)
Elevation: 456 ft. / 139 m (estimated)
Time zone: UTC -4 (UTC -5 during Standard Time)
Zip code: 18101

Heliport Operations

Heliport use: Private use. Permission required prior to landing
Activation date: 02/2007
Control tower: no
ARTCC: NEW YORK CENTER
FSS: WILLIAMSPORT FLIGHT SERVICE STATION
Attendance: 0800-1700
Wind indicator: lighted
Segmented circle: no
Lights: FOR PERIMETER AND FLOOD LGTS CALL 610-395-6871.

Heliport Communications

WX AWOS-3 at XLL (1.9 nm S): 127.875 (610-231-3111)
WX ASOS at ABE (3 nm NE): 126.975 (610-266-3579)
WX AWOS-3 at UKT (11 nm SE): 119.475 (215-538-7610)
WX AWOS-3 at CKZ (15 nm SE): 126.325 (215-257-7291)
WX AWOS-3PT at 22N (18 nm NW): 119.350 (570-386-3423)

Nearby radio navigation aids

VOR radial/distance  VOR name  Freq  Var
FJCr197/7.6ALLENTOWN VORTAC117.5010W
ETXr092/9.6EAST TEXAS VOR/DME110.2009W
PTWr019/23.1POTTSTOWN VORTAC116.5009W
BWZr259/32.0BROADWAY VOR/DME114.2011W
ARDr319/33.3YARDLEY VOR/DME108.2010W
SBJr282/33.4SOLBERG VOR/DME112.9010W
STWr240/36.3STILLWATER VOR/DME109.6011W

 
NDB name  Hdg/Dist  Freq  Var  ID
AMBLER355/29.827512WING .. -. --.

Heliport Services

Runway Information

Helipad H1

Dimensions: 45 x 45 ft. / 14 x 14 m
Surface: concrete
Runway edge lights: PERI
AND FLOOD LGTS.
Operational restrictions: ELEVATED HELIDECK.
Latitude: 40-36.063333N
Longitude: 075-28.505000W
Elevation: 456.0 ft.
Traffic pattern: leftleft

Heliport Ownership and Management from official FAA records

Ownership: Privately-owned
Owner: A. H. BUTZ INC
840 HAMILTON ST SUITE 600
ALLENTOWN, PA 18101
Phone 610-395-6871
Manager: ANNE EPISCOPO
840 HAMILTON ST SUITE 600
ALLENTOWN, PA 18101
Phone 610-395-6871

Additional Remarks

MAX ROTOR DIAMETER IS 45 FT.
MAX GROSS WEIGHT IS 15,000 LBS.
WRITTEN PMSN REQD PRIOR TO USING THE HELIPAD.
EMERG SVC HEL CTC MGR 610-396-6871 FOR DETAILS.
USE PRIM APCH/DEP PATH OF 040/220 DEGS FOR NOISE ABATEMENT AND GOOD COMMUNITY RELATIONS. IF THERE IS AN ISSUE OF SAFETY OR CRITICAL MISSION NEED, APCH/DEP PATH 230/050 ALSO AVBL.
THE PERIMETER SAFETY FENCE AND LIGHTS ARE SLIGHTLY HIGHER THAN THE PAD; EXERCISE CARE DURING MANUVERING TO, FM AND ON THE PAD.
FOR CD CTC ALLENTOWN APCH AT 800-728-6322.

Instrument Procedures

There are no published instrument procedures at 24PN.

Some nearby airports with instrument procedures:

KXLL - Allentown Queen City Municipal Airport (2 nm S)
KABE - Lehigh Valley International Airport (3 nm NE)
KUKT - Quakertown Airport (11 nm SE)
N43 - Braden Airpark (14 nm NE)
KCKZ - Pennridge Airport (15 nm SE)
22N - Jake Arner Memorial Airport (18 nm NW)
 
Loc | Ops | Rwys | IFR | FBO | Links
Com | Nav | Svcs | Stats | Notes
Area around 24PN (A H Butz Downtown Allentown Heliport)
 
Road maps at: MapQuest Bing Google
 
Aerial photo
No photo
 
Sectional chart

 
Airport distance calculator
Flying to A H Butz Downtown Allentown Heliport? Find the distance to fly.

From to 24PN

Sunrise and sunset
Times for 15-Jul-2020
 Local
(UTC-4)
 Zulu
(UTC)
Morning civil twilight05:1309:13
Sunrise05:4609:46
Sunset20:3000:30
Evening civil twilight21:0201:02

Current date and time
Zulu (UTC)  15-Jul-2020 07:44:56
Local (UTC-4)  15-Jul-2020 03:44:56
 
METAR
KXLL 
2nm S 
150715Z AUTO 00000KT 10SM CLR 19/17 A3012 RMK AO2
KABE 
3nm N 
150651Z 23003KT 10SM CLR 20/17 A3010 RMK AO2 SLP189 T02000167
KUKT 
11nm SE 
150715Z AUTO 00000KT 10SM CLR 18/18 A3011 RMK A01
KCKZ 
15nm SE 
150715Z AUTO 35003KT 10SM CLR 17/17 A3011 RMK AO2
K22N 
18nm NW 
150724Z AUTO 00000KT 5SM BR CLR 15/15 A3013 RMK AO2
TAF
KABE 
3nm N 
150520Z 1506/1606 VRB03KT P6SM FEW100 FM151700 15005KT P6SM SCT050
NOTAMs
Click for the latest NOTAMs
NOTAMs are issued by the DoD/FAA and will open in a separate window not controlled by AirNav.

 

 
 

Would you like to see your business listed on this page?

 If your business provides an interesting product or service to pilots, flight crews, aircraft, or users of the A H Butz Downtown Allentown Heliport, you should consider listing it here.  To start the listing process, click on the button below
 
Add a business
 

Other Pages about A H Butz Downtown Allentown Heliport

Update a link
 
Copyright © AirNav, LLC. All rights reserved. Privacy Policy  Contact